{"data":{"norad_id":58237,"epoch":"2026-09-20T11:08:13.194240Z","epoch_age_seconds":146664,"freshness":"FRESH","line1":"1 58237U 23171H   26263.46404160 -.00024289  00000+0 -87374-3 0  9991","line2":"2 58237  43.0029 265.1707 0001771 256.1300 103.9355 15.27663378159522","mean_motion":15.27663378,"eccentricity":0.0001771,"inclination_deg":43.0029,"raan_deg":265.1707,"arg_perigee_deg":256.13,"mean_anomaly_deg":103.9355,"bstar":-0.00087374,"rev_number":15952,"period_min":94.261603749723,"perigee_km":481.58437182375,"apogee_km":484.0145155121,"semimajor_km":6860.9364436679,"source":"CELESTRAK","updated_at":"2026-09-21T09:00:33.837342Z"}}